Location: Brockett
(40.8000°S, 175.4500°E)
Time: 03:38:35
(UTC+00:00)

CZ-2D R/B - Pass Details

Date: 04 August 2024
Orbit: 538 x 611 km, 98.0° (Epoch: 07 September)

Event Time Altitude Azimuth Distance (km) Brightness Sun altitude
Rises 17:25:07 0° 4° (N) 2,873 7.1 -22.1°
Reaches altitude 10° 17:27:18 10° 360° (N) 1,981 6.2 -21.6°
Maximum altitude 17:31:34 57° 280° (W) 741 3.5 -20.8°
Enters shadow 17:31:55 55° 258° (WSW) 758 3.6 -20.8°
